This demonstration page uses our WeatherBlox Daily Observations layout. Learn more.

Left ArrowRight Arrow

Hourly Observations for March 12, 2021

Temp ( °F °C ) Dew Point ( °F °C ) Humidity (%) Winds ( mph kmh ) Pressure ( in mb ) Visibility ( mi km ) Precip ( " mm )
12:51 am 00:51 Clear 52 11.1 25 -3.9 35 35 W 8 13 29.88 1012 10 16 N/A
1:51 am 01:51 Clear 49 9.4 24 -4.4 38 38 W 9 15 29.89 1012 10 16 N/A
2:51 am 02:51 Clear 46 7.8 25 -3.9 44 44 W 9 15 29.90 1013 10 16 N/A
3:51 am 03:51 Clear 46 7.8 27 -2.8 47 47 W 9 15 29.89 1012 10 16 N/A
4:51 am 04:51 Clear 43 6.1 27 -2.8 53 53 NNW 9 15 29.91 1013 10 16 N/A
5:51 am 05:51 Clear 39 3.9 25 -3.9 57 57 N N/A 29.96 1014 10 16 N/A
6:51 am 06:51 Sunny 40 4.4 26 -3.3 58 58 SSE 3 6 29.98 1015 10 16 N/A
7:51 am 07:51 Sunny 47 8.3 27 -2.8 46 46 SE 8 13 29.98 1015 10 16 N/A
8:51 am 08:51 Sunny 52 11.1 25 -3.9 35 35 ESE 8 13 29.98 1015 10 16 N/A
9:51 am 09:51 Sunny 57 13.9 28 -2.2 33 33 SSE 7 11 29.97 1015 10 16 N/A
10:51 am 10:51 Sunny 62 16.7 25 -3.9 24 24 S 10 17 29.96 1015 10 16 N/A
11:51 am 11:51 Sunny 65 18.3 23 -5 20 20 SW 17 28 29.93 1014 10 16 N/A
12:51 pm 12:51 Sunny 65 18.3 23 -5 20 20 undefined N/A 29.90 1012 10 16 N/A
1:51 pm 13:51 Sunny 69 20.6 21 -6.1 16 16 SW 18 30 29.86 1011 10 16 N/A
2:44 pm 14:44 Sunny 67 19.4 28 -2.2 23 23 W 14 22 29.79 1009 10 16 N/A
2:51 pm 14:51 Sunny 69 20.6 27 -2.8 21 21 WNW 15 24 29.83 1010 10 16 N/A
3:51 pm 15:51 Sunny 65 18.3 30 -1.1 27 27 WNW 21 33 29.84 1010 10 16 N/A
4:51 pm 16:51 Sunny 63 17.2 32 undefined 31 31 NW 18 30 29.84 1011 10 16 N/A
5:51 pm 17:51 Sunny 60 15.6 31 -0.6 33 33 NW 18 30 29.85 1011 10 16 N/A
6:51 pm 18:51 Clear 56 13.3 31 -0.6 39 39 NW 17 28 29.88 1012 10 16 N/A
7:51 pm 19:51 Clear 53 11.7 29 -1.7 40 40 NW 17 28 29.89 1012 10 16 N/A
8:51 pm 20:51 Clear 51 10.6 28 -2.2 41 41 WNW 13 20 29.91 1013 10 16 N/A
9:51 pm 21:51 Clear 49 9.4 27 -2.8 43 43 WNW 16 26 29.91 1013 10 16 N/A
10:51 pm 22:51 Clear 47 8.3 27 -2.8 46 46 WNW 15 24 29.91 1013 10 16 N/A
11:51 pm 23:51 Clear 46 7.8 29 -1.7 51 51 WNW 14 22 29.91 1013 10 16 N/A

Powered by AerisWeather